sat.trackr.live / text

‹ back to catalog

HULIANWANG DIGUI-133

NORAD 67241 · 2025-311F

PAYLOAD ACTIVE UNKNOWN

§ Identity

Operator
Country
PRC
Launch date
2025-12-25
Launch site
WSC
Launch vehicle
Mass (kg)
RCS (m²)

External: N2YO · Heavens-Above · Gunter

§ Orbital elements

Epoch: 2026-05-25T03:09:41.994720Z

Period
108.33 min
Inclination
50.0089°
Eccentricity
0.0000969
Mean motion
13.29323060 rev/d
Perigee alt
1,148.6 km
Apogee alt
1,150.0 km
Semi-major
7,527.5 km
B*
7.6246e-5
RAAN
198.4735°
Arg perigee
246.1103°
Mean anomaly
113.9668°
Rev number
2,027

§ Raw data

HULIANWANG DIGUI-1331 67241U 25311F   26145.13173605 -.00000089  00000+0  76246-4 0  99922 67241  50.0089 198.4735 0000969 246.1103 113.9668 13.29323060 20276

JSON: /api/v1/satellites/67241 · /tle

For live sub-satellite position, see the globe view (requires WebGL).

§ Visibility from observer

Set your observer location to see the next 7 days of passes ≥ 10°. The values pass through the URL so the page stays shareable.

No JS? Fill the form by hand. The geolocation button needs JavaScript.